FW9486 Weather Reports


Display with metric or nautical units.
time (UTC)temp
F
wind
direction
speed
MPH
gust
MPH
rain 1hr
in
rain 24hr
in
rain mn
in
humidity
%
barometer
mb
20260906200043 58 0 0.0 3.0 0.00 0.00 0.00 74 1011.5
20260906194549 59 44 0.0 2.0 0.00 0.00 0.00 70 1011.4
20260906193042 58 0 1.0 3.0 0.00 0.00 0.00 69 1011.5
20260906191542 57 0 0.0 2.0 0.00 0.00 0.00 71 1011.6
20260906190044 57 0 0.0 2.0 0.00 0.00 0.00 69 1011.6
20260906184554 56 122 1.0 2.0 0.00 0.00 0.00 72 1011.6
20260906183042 55 0 0.0 3.0 0.00 0.00 0.00 74 1011.8
20260906181607 56 0 0.0 2.0 0.00 0.00 0.00 73 1011.8
20260906180058 54 167 0.0 4.0 0.00 0.00 0.00 75 1011.8
20260906174556 53 124 0.0 3.0 0.00 0.00 0.00 74 1011.9
20260906173049 52 122 1.0 5.0 0.00 0.00 0.00 78 1012.0
20260906171554 50 141 1.0 2.0 0.00 0.00 0.00 80 1012.2
20260906170057 49 0 1.0 2.0 0.00 0.00 0.00 84 1012.2
20260906164543 48 0 0.0 0.0 0.00 0.00 0.00 86 1012.2
20260906163051 47 0 0.0 2.0 0.00 0.00 0.00 87 1012.1
20260906161546 47 120 0.0 2.0 0.00 0.00 0.00 86 1012.1
20260906160051 47 0 0.0 2.0 0.00 0.00 0.00 85 1012.1
20260906154552 46 0 0.0 0.0 0.00 0.00 0.00 90 1012.2
20260906153047 44 0 0.0 2.0 0.00 0.00 0.00 89 1012.2
20260906151545 44 86 0.0 1.0 0.00 0.00 0.00 90 1012.1
20260906150040 43 0 0.0 2.0 0.00 0.00 0.00 91 1012.1
20260906144548 42 0 0.0 0.0 0.00 0.00 0.00 92 1011.8
20260906143049 42 0 0.0 0.0 0.00 0.00 0.00 92 1011.8
20260906141545 41 0 0.0 0.0 0.00 0.00 0.00 92 1011.6
20260906140041 41 0 0.0 0.0 0.00 0.00 0.00 91 1011.5
20260906134548 41 0 0.0 0.0 0.00 0.00 0.00 89 1011.5
20260906133050 42 0 0.0 0.0 0.00 0.00 0.00 89 1011.3
20260906131547 43 0 0.0 0.0 0.00 0.00 0.00 89 1011.2
20260906130046 43 0 0.0 1.0 0.00 0.00 0.00 90 1011.5
20260906124540 42 0 0.0 0.0 0.00 0.01 0.00 90 1011.5
20260906123048 42 0 0.0 0.0 0.00 0.01 0.00 87 1011.8
20260906121553 43 0 0.0 1.0 0.00 0.01 0.00 87 1011.6
20260906120045 44 0 0.0 1.0 0.00 0.01 0.00 87 1011.3
20260906114540 44 0 0.0 1.0 0.00 0.01 0.00 87 1011.5
20260906113049 44 0 0.0 0.0 0.00 0.01 0.00 86 1011.5
20260906111554 45 0 0.0 0.0 0.00 0.01 0.00 85 1011.6
20260906110040 45 0 0.0 0.0 0.00 0.01 0.00 84 1011.5
20260906104541 46 0 0.0 0.0 0.00 0.01 0.00 83 1011.6
20260906103047 46 0 0.0 1.0 0.00 0.01 0.00 82 1011.5
20260906101546 47 0 0.0 1.0 0.00 0.01 0.00 80 1011.6
20260906100041 47 0 0.0 1.0 0.00 0.01 0.00 80 1011.6
20260906094542 48 0 0.0 0.0 0.00 0.01 0.00 78 1011.6
20260906093042 49 0 0.0 0.0 0.00 0.01 0.00 76 1011.6
20260906091540 49 0 0.0 0.0 0.00 0.01 0.00 76 1011.7
20260906090054 49 0 0.0 0.0 0.00 0.01 0.00 76 1011.8
20260906084551 49 0 0.0 0.0 0.00 0.01 0.00 75 1012.1
20260906083042 50 0 0.0 0.0 0.00 0.01 0.00 75 1012.2
20260906081540 50 0 0.0 0.0 0.00 0.01 0.00 73 1012.3
20260906080050 51 0 0.0 2.0 0.00 0.01 0.00 72 1012.3
20260906074547 51 0 0.0 1.0 0.00 0.01 0.00 72 1012.6
20260906073043 52 0 0.0 1.0 0.00 0.01 0.00 69 1012.4
20260906071558 53 0 0.0 1.0 0.00 0.01 0.00 67 1012.4
20260906070042 53 0 0.0 1.0 0.00 0.01 0.00 68 1012.5
20260906064539 53 0 0.0 1.0 0.00 0.01 0.00 68 1012.5
20260906063055 54 0 0.0 1.0 0.00 0.01 0.00 65 1012.9
20260906061548 54 0 0.0 1.0 0.00 0.01 0.00 65 1013.1
20260906060042 54 0 0.0 1.0 0.00 0.01 0.00 67 1012.9
20260906054550 54 0 0.0 1.0 0.00 0.01 0.01 68 1012.3
20260906053051 54 0 0.0 3.0 0.00 0.01 0.01 69 1012.5
20260906051546 54 0 0.0 1.0 0.00 0.01 0.01 69 1013.1
20260906050044 55 0 0.0 2.0 0.00 0.01 0.01 66 1013.2
20260906044542 55 0 0.0 2.0 0.00 0.01 0.01 62 1013.2
20260906043046 56 0 0.0 0.0 0.00 0.01 0.01 63 1012.9
20260906041542 56 0 0.0 0.0 0.00 0.01 0.01 61 1012.7
20260906040051 57 0 0.0 0.0 0.00 0.01 0.01 56 1012.8
20260906034548 57 0 0.0 0.0 0.00 0.01 0.01 55 1012.8
20260906033045 59 0 0.0 0.0 0.00 0.01 0.01 56 1013.0
20260906031542 59 0 0.0 0.0 0.00 0.01 0.01 52 1012.9
20260906030050 60 0 0.0 0.0 0.00 0.01 0.01 51 1012.9
20260906024559 60 0 0.0 1.0 0.00 0.01 0.01 49 1012.7
20260906023048 61 0 0.0 1.0 0.00 0.01 0.01 48 1012.4
20260906021544 63 0 0.0 0.0 0.00 0.01 0.01 47 1012.3
20260906020052 64 0 0.0 0.0 0.00 0.01 0.01 44 1012.3
20260906014600 65 321 0.0 2.0 0.00 0.01 0.01 42 1012.3
20260906013047 66 0 1.0 3.0 0.00 0.01 0.01 38 1012.3
20260906011548 67 316 1.0 4.0 0.00 0.01 0.01 37 1012.3
20260906010047 67 294 1.0 7.0 0.00 0.01 0.01 36 1012.4
20260906004544 68 274 4.0 10.0 0.00 0.01 0.01 35 1012.5
20260906003108 69 231 3.0 7.0 0.00 0.01 0.01 34 1012.4
20260906001545 70 193 2.0 12.0 0.00 0.01 0.01 33 1012.3
20260906000046 70 321 3.0 9.0 0.00 0.01 0.01 32 1012.4
20260905234553 70 207 2.0 5.0 0.00 0.01 0.01 36 1012.3
20260905233046 69 329 3.0 11.0 0.00 0.01 0.01 35 1012.4
20260905231546 70 253 3.0 11.0 0.00 0.01 0.01 35 1012.4
20260905230042 70 344 7.0 12.0 0.00 0.01 0.01 33 1012.6
20260905224546 70 305 6.0 15.0 0.00 0.01 0.01 34 1012.4
20260905223041 70 229 4.0 14.0 0.00 0.01 0.01 32 1012.5
20260905221547 70 304 6.0 16.0 0.00 0.01 0.01 33 1012.6
20260905220045 70 259 6.0 14.0 0.00 0.01 0.01 32 1012.6
20260905214549 71 262 5.0 16.0 0.00 0.01 0.01 30 1012.5
20260905213047 70 269 7.0 15.0 0.00 0.01 0.01 30 1012.7
20260905211545 70 338 4.0 14.0 0.00 0.01 0.01 31 1012.9
20260905210042 71 191 4.0 13.0 0.00 0.01 0.01 34 1012.9
20260905204546 71 287 2.0 5.0 0.00 0.01 0.01 30 1012.8
20260905203054 70 82 1.0 4.0 0.00 0.01 0.01 34 1012.9
20260905201545 68 181 2.0 7.0 0.00 0.01 0.01 35 1012.9